SUR4070 SPJC-SECU

Flight info

Callsign SUR4070
Flight time N/A
Altitude 30998
Route TELE2F ATATU UM674 TOSES KEVIV
Aircraft E175/L-S/1200

Departure

Time 2026-05-01 15:18
Airport Jorge Chávez International Airport (SPJC)

Arrival

Time N/A
Airport Mariscal Lamar Airport (SECU)
Time Latitude Longitude Altitude Speed Heading
2026-05-01 15:13 -12.00918 -77.11750 119 ft 0 kts 334°
2026-05-01 15:14 -12.00913 -77.11753 119 ft 2 kts 334°
2026-05-01 15:14 -12.00891 -77.11763 119 ft 4 kts 335°
2026-05-01 15:14 -12.00844 -77.11816 119 ft 5 kts 267°
2026-05-01 15:15 -12.00807 -77.11897 119 ft 7 kts 328°
2026-05-01 15:15 -12.00695 -77.11957 119 ft 10 kts 332°
2026-05-01 15:16 -12.00693 -77.12062 119 ft 8 kts 227°
2026-05-01 15:16 -12.00811 -77.12102 119 ft 10 kts 159°
2026-05-01 15:17 -12.01883 -77.11576 176 ft 150 kts 155°
2026-05-01 15:18 -12.05135 -77.09676 1286 ft 203 kts 152°
2026-05-01 15:18 -12.05559 -77.09440 1448 ft 208 kts 153°
2026-05-01 15:19 -12.11109 -77.07703 3170 ft 255 kts 201°
2026-05-01 15:19 -12.12972 -77.10575 4182 ft 258 kts 263°
2026-05-01 15:19 -12.13231 -77.12497 4654 ft 263 kts 262°
2026-05-01 15:20 -12.13746 -77.16264 5549 ft 261 kts 261°
2026-05-01 15:20 -12.13983 -77.18011 5961 ft 262 kts 261°
2026-05-01 15:20 -12.14232 -77.19847 6390 ft 266 kts 262°
2026-05-01 15:21 -12.14479 -77.21669 6808 ft 267 kts 261°
2026-05-01 15:21 -12.14721 -77.23456 7214 ft 266 kts 261°
2026-05-01 15:21 -12.14906 -77.25349 7632 ft 271 kts 276°
2026-05-01 15:21 -12.14201 -77.27118 8110 ft 275 kts 310°
2026-05-01 15:22 -12.11115 -77.29491 9021 ft 283 kts 323°
2026-05-01 15:22 -12.09488 -77.30645 9439 ft 285 kts 324°
2026-05-01 15:22 -12.07844 -77.31802 9858 ft 287 kts 324°
2026-05-01 15:23 -12.06201 -77.32955 10278 ft 287 kts 324°
2026-05-01 15:23 -12.04545 -77.34115 10705 ft 295 kts 325°
2026-05-01 15:23 -12.02799 -77.35336 11147 ft 307 kts 325°
2026-05-01 15:23 -12.01021 -77.36580 11580 ft 317 kts 326°
2026-05-01 15:24 -11.99172 -77.37872 12013 ft 327 kts 326°
2026-05-01 15:24 -11.97256 -77.39212 12454 ft 333 kts 326°
2026-05-01 15:24 -11.95329 -77.40559 12868 ft 335 kts 327°
2026-05-01 15:24 -11.93421 -77.41892 13233 ft 336 kts 327°
2026-05-01 15:25 -11.91471 -77.43254 13640 ft 336 kts 327°
2026-05-01 15:25 -11.89548 -77.44596 14092 ft 339 kts 327°
2026-05-01 15:25 -11.87588 -77.45966 14483 ft 340 kts 327°
2026-05-01 15:25 -11.85623 -77.47337 14864 ft 342 kts 327°
2026-05-01 15:26 -11.83650 -77.48714 15267 ft 343 kts 327°
2026-05-01 15:26 -11.81694 -77.50079 15661 ft 345 kts 327°
2026-05-01 15:26 -11.79693 -77.51475 16071 ft 347 kts 327°
2026-05-01 15:26 -11.77682 -77.52864 16485 ft 348 kts 330°
2026-05-01 15:27 -11.75590 -77.54147 16882 ft 349 kts 331°
2026-05-01 15:27 -11.73523 -77.55417 17274 ft 351 kts 331°
2026-05-01 15:27 -11.71502 -77.56658 17701 ft 354 kts 331°
2026-05-01 15:28 -11.67264 -77.59258 18484 ft 360 kts 330°
2026-05-01 15:28 -11.65101 -77.60585 18923 ft 363 kts 330°
2026-05-01 15:28 -11.62921 -77.61922 19319 ft 365 kts 330°
2026-05-01 15:29 -11.58535 -77.64612 20141 ft 370 kts 329°
2026-05-01 15:29 -11.56314 -77.65974 20541 ft 373 kts 329°
2026-05-01 15:29 -11.51841 -77.68715 21324 ft 377 kts 328°
2026-05-01 15:30 -11.48075 -77.71023 21977 ft 380 kts 328°
2026-05-01 15:31 -11.38196 -77.77074 23813 ft 383 kts 328°
2026-05-01 15:31 -11.33620 -77.79874 24687 ft 382 kts 328°
2026-05-01 15:32 -11.29038 -77.82677 25566 ft 381 kts 328°
2026-05-01 15:32 -11.24492 -77.85456 26443 ft 379 kts 327°
2026-05-01 15:33 -11.17734 -77.89587 27753 ft 374 kts 327°
2026-05-01 15:34 -11.11049 -77.93671 29065 ft 367 kts 327°